Regional Weather Roundup
Issued by NWS

Home | Current Version | Previous Version | Graphics & Text | Print | Product List | Glossary On
Versions: 1 2 3 4 5 6 7 8 9 10 11 12 13 14 15 16 17 18 19 20 21 22 23 24 25 26 27 28 29 30 31 32 33 34 35 36 37 38 39 40 41 42 43 44 45 46 47 48 49 50
000
ASUS45 KTFX 250210
RWRMT
MONTANA REGIONAL WEATHER ROUNDUP
NATIONAL WEATHER SERVICE GREAT FALLS MT
800 PM MDT SUN MAY 24 2015

NOTE: "FAIR" INDICATES FEW OR NO CLOUDS BELOW 12000 FEET WITH NO
SIGNIFICANT WEATHER AND/OR OBSTRUCTIONS TO VISIBILITY.

MTZ001>007-043-250300-
WEST OF THE DIVIDE

CITY           SKY/WX    TMP DP  RH WIND       PRES   REMARKS
KALISPELL      CLEAR     68  35  29 S8        29.88F
MISSOULA       SUNNY     66  36  32 E16       29.92S
BUTTE          LGT RAIN  51  43  74 SW6       30.00R
MULLAN PASS    CLOUDY    48  41  76 S8        30.01S
DEER LODGE       N/A     57  39  51 NW7       30.02S
EUREKA           N/A     75  34  22 SE14      29.85S
HAMILTON         N/A     64  37  36 N7        29.91S
LIBBY            N/A     73  37  27 SE7       29.85R
RONAN            N/A     65  42  43 E3        29.96S
$$

MTZ008-052>055-250300-
SOUTHWEST MONTANA

CITY           SKY/WX    TMP DP  RH WIND       PRES   REMARKS
BOZEMAN        CLOUDY    53  49  86 N6        29.98S
DILLON         CLEAR     57  38  48 N17       29.95R
W YELLOWSTONE  LGT RAIN  46  43  87 SE6       29.98R
THREE FORKS      N/A     55  55 100 E5        29.98S
TWIN BRIDGES     N/A     58  38  47 NW17      29.95S
$$

MTZ009-010-012-014-046-048-049-054-250300-
EAST SLOPES AND CENTRAL MONTANA

CITY           SKY/WX    TMP DP  RH WIND       PRES   REMARKS
CUT BANK       MOSUNNY   63  38  39 SE8       29.98F
GREAT FALLS    CLEAR     61  43  51 SE6       29.97S
MALMSTROM AFB  CLEAR     58  47  67 SE3       29.97F
HELENA         CLOUDY    56  48  74 SW7       29.97F
CONRAD           N/A     62  47  58 E3        30.02S
$$

MTZ011-013-016-021-045-047-050-051-250300-
NORTH CENTRAL MONTANA

CITY           SKY/WX    TMP DP  RH WIND       PRES   REMARKS
HAVRE          CLOUDY    62  46  55 S5        29.94F
LEWISTOWN      MOCLDY    60  46  59 N3        29.99S
N BAR RANCH    FAIR      55  45  67 N3        30.01S
CHINOOK          N/A     64  45  48 CALM      29.93F
FORT BENTON      N/A     63  45  51 SE3       29.96F
$$

MTZ017>020-022>027-061-062-250300-
NORTHEAST MONTANA

CITY           SKY/WX    TMP DP  RH WIND       PRES   REMARKS
GLASGOW        MOCLDY    69  39  33 SE7       29.90F
JORDAN           N/A     67  44  43 E3        29.91F
SIDNEY         MOCLDY    63  54  72 CALM      29.92S
WOLF POINT     MOCLDY    69  47  45 CALM      29.90S
MALTA            N/A     70  44  38 CALM      29.89F
POPLAR           N/A     70  46  43 S5        29.91S
SCOBEY           N/A     70  36  28 E5        29.92S
$$

MTZ028>42-056>058-250300-
SOUTHCENTRAL AND SOUTHEAST MONTANA

CITY           SKY/WX    TMP DP  RH WIND       PRES   REMARKS
BAKER          LGT RAIN  57  54  89 N6        29.95R FOG
BILLINGS       MOCLDY    57  47  69 NW7       29.95S
LIVINGSTON     MOCLDY    52  46  80 E14       29.97F
MILES CITY     LGT RAIN  60  51  72 SE10      29.93R
BIG TIMBER       N/A     52  46  82 E6        30.00F
EKALAKA          N/A     52  49  89 CALM      29.93S
FORSYTH          N/A     61  52  72 SE8       29.93R
LAUREL           N/A     56  46  69 NW6       29.95S
ROUNDUP          N/A     61  45  55 CALM      29.88F
$$

REGIONAL REPORTS...DAKOTAS

CITY           SKY/WX    TMP DP  RH WIND       PRES   REMARKS
WILLISTON      PTCLDY    69  43  38 E8        29.91R
MINOT          MOCLDY    66  44  45 NE6       29.90S
DICKINSON      CLOUDY    59  50  72 NE5       29.90S
BEACH          CLOUDY    57  57 100 N5        29.94S
CROSBY         FAIR      66  39  37 SE6       29.91F
WATFORD CITY   FAIR      66  46  48 E9        29.90S
BISMARCK       CLOUDY    63  52  67 E6        29.89F
GRAND FORKS    CLOUDY    68  50  52 S5        29.89S
FARGO          CLOUDY    66  54  65 CALM      29.88S
BUFFALO SD       N/A     56  52  86 N8        29.85S
RAPID CITY     CLOUDY    55  53  93 NE12      29.86R
$$

REGIONAL REPORTS...WYOMING/IDAHO/WASHINGTON

CITY           SKY/WX    TMP DP  RH WIND       PRES   REMARKS
GILLETTE       CLOUDY    50  47  89 NE8       29.91R
SHERIDAN       LGT RAIN  50  49  96 NW6       29.94S
BUFFALO WY     LGT RAIN  47  46  97 NE3       29.95R FOG
CODY           CLOUDY    50  45  81 N3        29.98S
YELLOWSTONE LA   N/A     46  37  71 CALM      30.02S
IDAHO FALLS    CLOUDY    59  48  67 S10       29.87R
SALMON         CLOUDY    64  41  42 N5        29.88S
BOISE          SUNNY     76  40  27 NW12      29.80R
SPOKANE        CLOUDY    74  44  34 SW12      29.83F
$$

REGIONAL REPORTS...ALBERTA

CITY           SKY/WX    TMP DP  RH WIND       PRES   REMARKS
EDMONTON       SUNNY     75  34  22 S17G23    29.87F
CALGARY        MOSUNNY   68  34  28 S16       29.92S
LETHBRIDGE     MOSUNNY   66  37  34 S17       29.94F
MEDICINE HAT   PTCLDY    73  32  21 CALM      29.92F
$$

REGIONAL REPORTS...SASKATCHEWAN

CITY           SKY/WX    TMP DP  RH WIND       PRES   REMARKS
SWIFT CURRENT  MOCLDY    68  34  28 SE6       29.94F
REGINA         PTCLDY    72  37  28 NW3       29.91F
SASKATOON      PTCLDY    72  39  30 N7        29.91F
$$


USA.gov is the U.S. government's official web portal to all federal, state and local government web resources and services.